Weather History for North Padre Island, TX

Change the Weather History Date:

Friday, November 16, 2012

  Actual Average Record
Temperature  
Mean Temperature 70 °F -  
Max Temperature 71 °F - - ()
Min Temperature 68 °F - - ()
Cooling Degree Days 4    
Growing Degree Days 20 (Base 50)    
Moisture  
Dew Point 55 °F    
Average Humidity 58    
Maximum Humidity 64    
Minimum Humidity 49    
Precipitation  
Precipitation 0.00 in - - ()
Sea Level Pressure  
Sea Level Pressure 30.22 in    
Wind  
Wind Speed 19 mph (NNE)    
Max Wind Speed 25 mph    
Max Gust Speed 29 mph    
Visibility 9 miles    
Events      
T = Trace of Precipitation, MM = Missing Value Source: NWS Daily Summary

Daily Weather History Graph

Daily Weather History Graph

Search for Another Location

Airport:

Trip Planner

Search our weather history database for the weather conditions in past years. The results will help you decide how hot, cold, wet, or windy it might be!

Date:

Astronomy

Nov. 16, 2012 Rise Set
Actual Time 6:48 AM CST 5:36 PM CST
Civil Twilight 6:23 AM CST 6:01 PM CST
Nautical Twilight 5:55 AM CST 6:29 PM CST
Astronomical Twilight 5:28 AM CST 6:56 PM CST
Moon 9:39 AM CST (11/16) 8:40 PM CST (11/16)
Length of Visible Light 11h 37m
Length of Day
10h 48m
Waxing Crescent, 12% of the Moon is Illuminated
Nov 16
Waxing Crescent
Nov 20
First Quarter
Nov 28
Full
Dec 6
Last Quarter
Dec 13
New

Hourly Weather History & Observations

Time (CST) Temp. Dew Point Humidity Pressure Visibility Wind Dir Wind Speed Gust Speed Precip Events Conditions
12:15 AM 71.6 °F 59.0 °F 64% 30.19 in 9.0 mi NE 19.6 mph - N/A   Overcast
12:35 AM 71.6 °F 59.0 °F 64% 30.18 in 10.0 mi NE 20.7 mph - N/A   Overcast
12:55 AM 71.6 °F 59.0 °F 64% 30.18 in 9.0 mi NE 20.7 mph - N/A   Overcast
1:15 AM 71.6 °F 59.0 °F 64% 30.19 in 9.0 mi NE 19.6 mph - N/A   Overcast
1:35 AM 71.6 °F 59.0 °F 64% 30.19 in 10.0 mi NE 23.0 mph - N/A   Overcast
1:55 AM 71.6 °F 59.0 °F 64% 30.18 in 10.0 mi NE 21.9 mph - N/A   Overcast
2:15 AM 71.6 °F 59.0 °F 64% 30.18 in - NE 21.9 mph - N/A   Overcast
2:35 AM 71.6 °F 59.0 °F 64% 30.18 in 9.0 mi NE 24.2 mph - N/A   Overcast
2:55 AM 71.6 °F 59.0 °F 64% 30.18 in 10.0 mi NE 20.7 mph - N/A   Overcast
3:35 AM 71.6 °F 59.0 °F 64% 30.18 in 10.0 mi NE 25.3 mph - N/A   Overcast
3:55 AM 71.6 °F 59.0 °F 64% 30.18 in 9.0 mi NE 24.2 mph - N/A   Overcast
4:15 AM 71.6 °F 59.0 °F 64% 30.17 in 9.0 mi NE 23.0 mph - N/A   Overcast
4:35 AM 71.6 °F 59.0 °F 64% 30.17 in 9.0 mi NE 21.9 mph - N/A   Overcast
4:55 AM 71.6 °F 59.0 °F 64% 30.17 in 9.0 mi NE 23.0 mph - N/A   Overcast
5:15 AM 71.6 °F 59.0 °F 64% 30.17 in 10.0 mi NE 25.3 mph - N/A   Overcast
5:35 AM 71.6 °F 59.0 °F 64% 30.18 in 9.0 mi NE 24.2 mph - N/A   Overcast
5:55 AM 71.6 °F 57.2 °F 60% 30.18 in 9.0 mi NNE 18.4 mph 26.5 mph N/A   Overcast
6:15 AM 71.6 °F 57.2 °F 60% 30.18 in 10.0 mi NE 24.2 mph - N/A   Overcast
6:35 AM 71.6 °F 57.2 °F 60% 30.19 in 9.0 mi NE 24.2 mph - N/A   Overcast
6:55 AM 71.6 °F 57.2 °F 60% 30.20 in 9.0 mi NE 20.7 mph - N/A   Overcast
7:15 AM 71.6 °F 57.2 °F 60% 30.20 in 9.0 mi NE 24.2 mph - N/A   Overcast
7:35 AM 71.6 °F 57.2 °F 60% 30.20 in 5.0 mi NE 23.0 mph - N/A   Haze
7:55 AM 71.6 °F 55.4 °F 57% 30.22 in 9.0 mi NE 20.7 mph - N/A   Overcast
8:15 AM 71.6 °F 55.4 °F 57% 30.22 in 9.0 mi NNE 17.3 mph 24.2 mph N/A   Overcast
8:35 AM 71.6 °F 55.4 °F 57% 30.23 in 9.0 mi NNE 17.3 mph 27.6 mph N/A   Overcast
8:55 AM - - N/A% 30.23 in - NNE 20.7 mph 27.6 mph N/A   Unknown
9:15 AM 71.6 °F 57.2 °F 60% 30.24 in 9.0 mi NNE 18.4 mph 26.5 mph N/A   Unknown
9:35 AM 71.6 °F 55.4 °F 57% 30.25 in 9.0 mi NNE 18.4 mph 27.6 mph N/A   Mostly Cloudy
9:55 AM 71.6 °F 55.4 °F 57% 30.25 in 8.0 mi NNE 21.9 mph - N/A   Scattered Clouds
10:15 AM 71.6 °F 57.2 °F 60% 30.26 in 9.0 mi NNE 15.0 mph 28.8 mph N/A   Unknown
10:35 AM 71.6 °F 57.2 °F 60% 30.26 in 9.0 mi NE 23.0 mph - N/A   Partly Cloudy
10:55 AM 71.6 °F 57.2 °F 60% 30.26 in 8.0 mi NNE 17.3 mph 26.5 mph N/A   Mostly Cloudy
11:15 AM 71.6 °F 55.4 °F 57% 30.26 in 8.0 mi NNE 17.3 mph 25.3 mph N/A   Mostly Cloudy
11:35 AM 71.6 °F 55.4 °F 57% 30.25 in 9.0 mi NNE 17.3 mph 25.3 mph N/A   Mostly Cloudy
11:55 AM 71.6 °F 55.4 °F 57% 30.25 in 9.0 mi NNE 17.3 mph 25.3 mph N/A   Scattered Clouds
12:15 PM 71.6 °F 55.4 °F 57% 30.25 in 9.0 mi NNE 19.6 mph - N/A   Mostly Cloudy
12:35 PM 69.8 °F 53.6 °F 56% 30.23 in 8.0 mi NE 21.9 mph - N/A   Mostly Cloudy
12:55 PM 69.8 °F 53.6 °F 56% 30.23 in 8.0 mi NNE 18.4 mph 26.5 mph N/A   Mostly Cloudy
1:15 PM 69.8 °F 53.6 °F 56% 30.22 in 7.0 mi NNE 12.7 mph 27.6 mph N/A   Scattered Clouds
1:35 PM 69.8 °F 53.6 °F 56% 30.21 in 8.0 mi NE 20.7 mph - N/A   Scattered Clouds
1:55 PM 69.8 °F 53.6 °F 56% 30.21 in 7.0 mi NNE 13.8 mph 21.9 mph N/A   Mostly Cloudy
2:15 PM 69.8 °F 53.6 °F 56% 30.21 in 9.0 mi NNE 11.5 mph - N/A   Mostly Cloudy
2:35 PM 69.8 °F 51.8 °F 53% 30.21 in 9.0 mi NNE 17.3 mph 24.2 mph N/A   Mostly Cloudy
2:55 PM 69.8 °F 53.6 °F 56% 30.21 in 3.0 mi NNE 16.1 mph 25.3 mph N/A   Haze
3:15 PM 69.8 °F 51.8 °F 53% 30.21 in 9.0 mi NNE 11.5 mph 20.7 mph N/A   Overcast
3:35 PM 69.8 °F 51.8 °F 53% 30.20 in 8.0 mi NNE 15.0 mph 23.0 mph N/A   Overcast
3:55 PM 69.8 °F 53.6 °F 56% 30.21 in 9.0 mi NNE 11.5 mph 20.7 mph N/A   Overcast
4:15 PM 69.8 °F 51.8 °F 53% 30.21 in 9.0 mi NNE 10.4 mph 21.9 mph N/A   Overcast
4:35 PM 69.8 °F 51.8 °F 53% 30.22 in 10.0 mi NNE 16.1 mph 23.0 mph N/A   Overcast
4:55 PM 69.8 °F 53.6 °F 56% 30.22 in 9.0 mi NNE 10.4 mph 18.4 mph N/A   Overcast
5:15 PM 69.8 °F 53.6 °F 56% 30.23 in 10.0 mi NNE 13.8 mph 20.7 mph N/A   Overcast
5:35 PM 69.8 °F 53.6 °F 56% 30.24 in 8.0 mi NNE 13.8 mph - N/A   Overcast
5:55 PM 69.8 °F 51.8 °F 53% 30.23 in 7.0 mi NNE 10.4 mph 19.6 mph N/A   Overcast
6:15 PM 69.8 °F 51.8 °F 53% 30.23 in 6.0 mi NNE 15.0 mph - N/A   Haze
6:35 PM 69.8 °F 51.8 °F 53% 30.24 in 9.0 mi NNE 15.0 mph 20.7 mph N/A   Overcast
7:15 PM 69.8 °F 50.0 °F 49% 30.24 in 10.0 mi NNE 15.0 mph 21.9 mph N/A   Overcast
7:55 PM 68.0 °F 50.0 °F 52% 30.26 in 9.0 mi NNE 16.1 mph - N/A   Overcast
8:15 PM 69.8 °F 51.8 °F 53% 30.26 in 9.0 mi NE 15.0 mph 21.9 mph N/A   Scattered Clouds
8:35 PM 68.0 °F 50.0 °F 52% 30.27 in 10.0 mi NNE 12.7 mph 19.6 mph N/A   Clear
8:55 PM 68.0 °F 50.0 °F 52% 30.27 in 8.0 mi NNE 9.2 mph 18.4 mph N/A   Clear
9:15 PM 69.8 °F 51.8 °F 53% 30.28 in 9.0 mi NNE 8.1 mph 18.4 mph N/A   Clear
9:35 PM 68.0 °F 51.8 °F 56% 30.28 in 9.0 mi NNE 8.1 mph 17.3 mph N/A   Partly Cloudy
9:55 PM 68.0 °F 50.0 °F 52% 30.28 in 7.0 mi NNE 13.8 mph - N/A   Clear
10:15 PM 68.0 °F 50.0 °F 52% 30.27 in 9.0 mi NNE 10.4 mph 19.6 mph N/A   Clear
10:35 PM 68.0 °F 51.8 °F 56% 30.28 in 10.0 mi NNE 8.1 mph 17.3 mph N/A   Clear
10:55 PM 68.0 °F 51.8 °F 56% 30.28 in 10.0 mi NNE 10.4 mph - N/A   Clear
11:15 PM 68.0 °F 51.8 °F 56% 30.28 in 10.0 mi NNE 12.7 mph 18.4 mph N/A   Partly Cloudy
11:35 PM 68.0 °F 51.8 °F 56% 30.27 in 9.0 mi NNE 11.5 mph 19.6 mph N/A   Scattered Clouds
11:55 PM 68.0 °F 51.8 °F 56% 30.27 in 9.0 mi NNE 11.5 mph 17.3 mph N/A   Partly Cloudy